Weather Roundup
Issued by NWS

Home | Current Version | Previous Version | Graphics & Text | Print | Product List | Glossary Off
Versions: 1 2 3 4 5 6 7 8 9 10 11 12 13 14 15 16 17 18 19 20 21 22 23 24 25 26 27 28 29 30 31 32 33 34 35 36 37 38 39 40 41 42 43 44 45 46 47 48 49 50

000
NZUS93 KARX 312210
HRRWXR

CURRENT HOURLY OBSERVATIONS ACROSS
MUCH OF THE UPPER MISSISSIPPI VALLEY
NATIONAL WEATHER SERVICE LA CROSSE WI
500 PM CDT MON AUG 31 2015


...SOUTHEAST MINNESOTA...


CITY           SKY/WX    TMP DP  RH WIND       PRES   REMARKS
ROCHESTER      SUNNY     82  71  69 S14       29.95F
ROCHESTER/MAYO FAIR      83  70  64 S13G21    29.94F
WINONA         SUNNY     82  68  61 SW7       29.94F
AUSTIN         MOSUNNY   84  72  65 S13G20    29.94S
ALBERT LEA     SUNNY     84  70  61 S8G18     29.92F
DODGE CENTER   SUNNY     81  72  74 S13       29.93F
PRESTON        MOSUNNY   81  70  69 S13       29.97F
OWATONNA       SUNNY     82  70  65 S10       29.92S
FARIBAULT      SUNNY     82  72  69 S8        29.91S
$$

...ELSEWHERE IN MINNESOTA...


CITY           SKY/WX    TMP DP  RH WIND       PRES   REMARKS
MINNEAPOLIS    MOSUNNY   85  68  56 S15G28    29.88F
INTNL FALLS    MOSUNNY   80  64  58 W13G23    29.76R
DULUTH         MOSUNNY   80  67  64 SW12      29.85S
RED WING       SUNNY     86  70  58 SW8       29.89F HX  90
REDWOOD FALLS  SUNNY     84  67  56 S16       29.86S
MANKATO        SUNNY     82  68  61 S14G25    29.89F
WORTHINGTON    SUNNY     81  64  57 S14G23    29.90S
FAIRMONT       SUNNY     82  66  57 S14G20    29.90S
$$

...SOUTHWEST WISCONSIN...


CITY           SKY/WX    TMP DP  RH WIND       PRES   REMARKS
LA CROSSE      MOSUNNY   84  70  62 S9        29.95F
PRAIRIE DU CHI MOSUNNY   83  68  59 SE5       29.97S
BOSCOBEL       MOSUNNY   86  69  56 VRB6      29.98F HX  90
LONE ROCK      SUNNY     83  67  58 S8        30.00S
PLATTEVILLE    MOSUNNY   82  71  70 S8        30.00F
FORT MC COY    PTSUNNY   82  67  59 S5        29.98S
CAMP DOUGLAS   PTSUNNY   82  73  74 S7        29.99S
VIROQUA          N/A     81  69  67 S6        30.00F
WIS DELLS      PTSUNNY   82  65  56 S10       30.00S
$$

...ELSEWHERE IN WISCONSIN...


CITY           SKY/WX    TMP DP  RH WIND       PRES   REMARKS
MILWAUKEE      PTSUNNY   75  66  73 SE12      30.02S
MADISON        MOSUNNY   82  67  60 S12       30.00S
GREEN BAY      SUNNY     78  68  71 SW9       29.99S
EAU CLAIRE     SUNNY     82  70  66 S12       29.93F
BLACK RVR FLS  FAIR      83  67  58 S7        29.96F
MEDFORD        CLOUDY    74  68  82 S7        30.00F
WAUSAU         SUNNY     77  66  68 SW8       29.99S
WIS RAPIDS     SUNNY     81  67  62 SW12      30.00F
MARSHFIELD     MOSUNNY   80  66  62 S10       29.99F
RICE LAKE      SUNNY     79  70  73 SE14      29.93F
$$

...NORTHEAST IOWA...


CITY           SKY/WX    TMP DP  RH WIND       PRES   REMARKS
DECORAH        MOSUNNY   82  72  69 S8        29.96F
MASON CITY     SUNNY     84  71  65 S14       29.94F
CHARLES CITY   MOSUNNY   84  75  74 S13       29.96S HX  92
OELWEIN        SUNNY     82  73  74 S8G16     29.98S
$$

...ELSEWHERE IN IOWA...


CITY           SKY/WX    TMP DP  RH WIND       PRES   REMARKS
DES MOINES     MOSUNNY   87  70  56 S9        29.92F HX  92
IOWA CITY      MOSUNNY   86  73  65 SE8       29.97F HX  93
FORT DODGE     SUNNY     84  70  61 S15       29.93F
$$

...NORTHERN ILLINOIS...


CITY           SKY/WX    TMP DP  RH WIND       PRES   REMARKS
CHICAGO-OHARE  MOSUNNY   85  66  53 SW7       30.01S
CHICAGO-MIDWAY MOSUNNY   86  67  52 SW8       30.01S
MOLINE         MOSUNNY   88  71  57 S9        29.97F HX  94
ROCKFORD       MOSUNNY   84  68  58 SW10      30.02F
PEORIA         MOSUNNY   91  69  48 S7        30.00S HX  96
$$

NOTE: "FAIR" INDICATES FEW OR NO CLOUDS BELOW 12,000 FEET WITH NO
SIGNIFICANT WEATHER AND/OR OBSTRUCTIONS TO VISIBILITY. WIND
SPEEDS ARE IN MILES-PER-HOUR.



USA.gov is the U.S. government's official web portal to all federal, state and local government web resources and services.